Wind_Speed
35 33 32 31 30 31 30 27 26 25 24 25 27 27 28 26 25 24 23 22 20 19 20 19 18 19 20 20 20 21 22 22 21 20 20 19 18 18 18 17 17 17 18 19 18 19 20 20 20 21 19 19 21 23 23 22 19 17 16 16 18 20 19 19 15 9 8 9 9 11 13 12 12 12 10 8 7 9 10 12 12 13 13 12 11
36 34 31 30 31 32 30 26 25 26 26 28 28 29 29 27 24 24 23 22 20 18 19 18 17 18 19 20 21 21 20 19 18 16 16 15 15 15 14 13 13 15 18 19 18 17 16 16 17 18 19 19 21 24 23 20 18 17 16 15 18 21 19 18 17 11 8 9 9 10 11 8 7 7 7 7 7 8 9 10 11 10 7 7 9
36 33 31 31 33 32 28 26 27 28 28 29 28 28 29 27 25 24 22 21 20 18 18 17 16 17 18 19 19 18 16 15 14 13 13 13 12 11 10 10 12 14 17 19 18 15 15 15 15 16 19 20 22 23 20 17 17 16 14 13 14 17 17 17 18 11 7 10 11 9 10 9 7 5 6 8 8 7 7 9 10 7 4 7 11
35 33 32 33 34 31 27 26 28 28 28 28 28 28 28 27 25 24 21 20 20 18 18 17 16 17 19 19 17 15 13 13 13 13 13 13 12 10 9 10 12 13 15 17 17 15 14 15 16 17 19 20 21 20 17 16 16 13 11 11 11 14 15 16 18 13 7 9 12 11 11 12 10 8 8 7 8 7 7 8 8 6 6 11 11
35 34 34 34 35 31 27 27 27 27 27 27 27 28 27 26 25 24 21 19 17 18 18 17 16 18 21 19 15 13 14 14 14 14 14 13 12 11 10 11 12 12 13 14 15 15 15 14 15 16 18 21 22 19 15 14 13 11 10 11 11 14 17 16 17 18 12 7 9 11 13 13 11 10 11 10 9 9 10 11 12 9 8 13 13
36 35 35 36 35 31 28 28 27 27 28 28 28 27 26 26 26 23 21 19 17 17 19 19 18 20 20 17 15 15 15 14 14 14 14 13 12 11 10 11 13 13 13 14 13 13 14 14 14 13 14 16 17 15 11 10 12 14 14 13 12 15 20 19 18 20 18 10 6 9 12 12 10 8 8 10 12 11 11 12 13 10 10 13 17
38 37 36 35 33 31 29 27 27 27 28 30 30 29 28 28 27 24 22 20 19 18 19 18 19 19 18 16 15 15 15 15 15 15 15 13 12 10 10 12 15 14 13 14 13 13 13 12 11 10 10 11 13 13 12 13 14 15 16 14 12 13 16 18 17 16 17 14 10 7 7 8 9 7 6 9 12 11 10 10 11 12 12 12 14
39 36 35 33 32 33 31 27 26 28 29 29 30 30 30 29 28 26 23 21 19 18 16 15 16 17 16 15 14 15 16 16 16 16 14 13 13 13 13 14 15 14 12 12 13 12 11 9 9 9 9 11 14 15 15 15 13 12 14 13 11 9 10 12 12 11 13 17 16 10 7 10 11 11 11 12 13 13 13 12 11 12 13 14 13
37 34 32 32 32 33 32 28 27 29 30 30 31 31 31 29 28 25 21 18 17 15 13 14 15 14 15 16 15 15 16 16 16 16 13 13 13 14 14 14 14 14 12 11 11 10 8 8 9 9 8 10 14 14 13 13 11 9 11 11 9 8 7 6 6 5 8 15 18 14 11 12 11 11 13 13 14 14 12 10 10 10 11 13 11
34 32 30 30 32 33 32 30 28 29 32 32 32 31 31 29 27 24 20 18 17 15 13 13 13 12 13 15 16 16 17 19 19 17 15 16 15 14 14 15 14 13 12 11 11 10 10 11 10 9 8 9 11 12 11 10 8 8 10 11 10 9 8 5 5 5 7 12 16 16 13 11 10 11 12 12 14 13 9 7 10 12 11 9 8
31 29 28 29 32 32 32 30 28 28 32 32 30 29 30 29 26 25 23 20 19 17 15 12 13 13 13 15 18 19 20 21 20 18 17 18 18 16 13 12 10 9 10 10 11 11 11 11 9 8 8 9 10 11 10 9 9 9 11 11 10 10 10 9 8 8 10 11 12 13 12 10 10 12 12 13 13 11 9 10 12 11 9 9 9
30 28 26 28 30 29 29 29 27 28 31 31 30 29 29 29 27 26 24 22 20 19 16 12 14 16 16 17 19 21 22 21 19 16 16 17 18 15 11 8 4 5 7 7 7 9 8 7 8 8 8 9 10 10 10 10 10 11 12 13 12 11 11 12 12 11 12 11 9 9 10 10 11 12 13 13 14 12 11 12 13 10 8 9 11
30 28 26 27 28 26 27 27 26 28 31 31 31 30 31 30 28 25 23 21 20 19 15 13 16 18 17 18 21 22 21 20 17 13 12 13 12 10 8 5 3 3 3 2 5 7 6 7 8 8 8 9 10 10 11 11 10 10 10 10 8 7 8 11 13 13 13 13 11 10 11 12 13 14 14 14 15 15 13 11 11 11 10 10 10
29 28 27 27 27 27 25 24 24 27 30 30 31 31 31 30 28 25 23 22 21 19 16 17 20 20 17 19 22 21 19 17 13 10 10 9 8 6 4 1 3 5 4 3 4 5 6 7 8 8 9 11 11 11 11 10 9 9 7 6 6 7 9 10 12 14 14 14 14 13 12 13 14 13 12 13 15 16 13 8 5 6 9 11 11
28 28 27 26 26 25 23 22 24 27 30 31 30 30 29 28 27 26 24 23 22 19 17 19 22 21 19 21 22 20 17 14 10 9 9 7 6 7 4 4 8 9 8 6 4 5 6 5 7 9 10 12 11 11 11 10 9 7 4 5 8 9 8 9 12 14 15 16 17 14 11 11 12 11 10 10 12 13 12 8 7 7 9 11 10
28 28 27 26 25 24 24 23 24 27 30 31 30 29 28 27 27 26 24 22 20 19 18 20 22 22 21 23 22 19 17 13 9 9 8 7 9 9 7 9 11 12 11 9 7 7 5 3 2 4 7 9 9 9 9 8 7 6 5 6 8 6 5 7 12 16 16 17 17 15 12 11 11 10 11 11 10 11 12 10 10 11 10 10 8
27 26 26 25 24 24 25 24 24 26 29 29 29 29 27 27 27 26 24 22 19 19 19 20 22 23 23 24 21 19 17 13 10 9 8 10 12 10 10 11 12 12 11 9 7 7 7 7 4 1 2 4 5 6 5 4 4 6 7 5 6 5 4 5 9 14 18 18 17 16 13 12 12 12 13 14 14 15 12 10 11 11 8 7 9
25 25 25 25 24 25 24 23 23 26 27 26 27 26 26 26 26 24 21 20 19 20 20 21 23 23 23 22 19 17 16 13 10 9 10 14 14 11 11 10 10 10 10 9 7 7 8 10 9 6 3 2 4 4 5 5 6 7 7 7 8 6 4 3 5 10 15 17 18 17 16 15 14 13 13 13 12 11 10 10 11 11 7 4 5
24 24 24 23 23 23 21 21 23 24 23 23 24 23 23 22 21 20 20 20 21 22 21 21 22 22 21 19 17 15 13 11 10 11 14 17 16 14 12 9 8 8 10 11 9 7 7 10 12 9 6 5 6 6 6 8 9 9 9 11 10 4 1 2 3 5 8 11 13 14 13 12 11 9 8 8 8 10 11 10 11 11 8 4 3
24 23 23 23 23 23 21 20 22 21 19 21 21 21 21 21 21 21 21 21 22 22 21 21 21 20 18 16 13 13 10 9 11 14 18 19 17 16 16 13 9 7 9 11 11 9 8 10 12 11 9 6 6 7 8 10 11 11 12 12 10 2 1 2 4 3 3 5 6 6 6 6 6 6 7 8 11 11 9 9 10 10 9 6 4
23 23 23 23 22 22 20 19 20 20 19 19 19 18 19 20 21 21 21 20 19 19 20 20 19 18 16 12 10 11 8 8 13 17 20 19 18 19 19 17 14 10 10 11 11 11 9 9 11 12 10 6 5 7 9 11 11 12 12 11 8 3 1 5 8 7 5 5 5 4 5 6 6 7 8 9 10 9 8 8 8 8 8 7 3
23 23 23 22 21 21 21 20 19 19 19 18 18 18 18 19 20 21 20 19 18 18 19 17 17 16 13 9 9 9 7 8 15 19 21 20 21 21 19 17 15 13 12 12 11 12 10 8 9 11 8 6 6 7 9 11 11 11 12 11 10 6 2 8 9 8 8 7 6 5 5 6 6 6 7 7 7 7 6 6 6 6 6 4 2
23 22 21 21 21 21 20 18 18 19 20 18 17 18 18 18 18 18 18 19 18 18 17 16 16 14 10 7 7 8 6 10 16 20 22 22 21 20 19 17 15 13 13 13 14 15 11 7 8 9 7 5 7 7 9 10 9 9 11 11 10 7 4 10 10 7 7 5 3 6 8 8 6 5 4 4 4 5 4 3 3 2 1 2 3
22 22 21 22 22 21 19 18 18 19 19 17 16 16 16 16 15 16 17 18 17 16 17 16 15 12 10 9 8 8 7 10 18 22 23 22 21 20 18 17 16 15 15 15 16 16 10 5 6 8 8 7 7 9 10 10 9 9 9 9 8 6 6 11 11 8 8 8 5 7 9 7 6 6 5 3 3 3 2 2 2 4 6 5 5
24 24 23 23 22 20 18 18 18 17 17 16 16 16 14 13 13 14 16 17 17 15 16 16 14 11 11 11 10 9 8 9 18 24 24 22 22 21 19 18 16 16 16 16 16 14 10 8 7 8 9 8 8 9 10 11 10 9 9 8 8 6 7 9 9 7 7 8 9 10 9 7 6 6 4 4 6 5 4 5 5 6 7 5 6
25 24 23 22 22 21 20 19 18 18 17 16 15 14 12 11 13 14 14 15 15 13 14 16 14 13 13 12 11 11 9 8 13 22 25 23 22 21 21 19 18 17 17 16 14 12 11 11 9 9 8 8 8 9 10 11 11 9 9 10 11 10 8 8 8 8 8 9 10 10 8 6 6 5 3 5 7 6 5 5 4 5 4 3 5
24 23 21 22 23 22 20 19 19 17 16 14 12 10 9 9 12 14 14 15 16 15 15 16 15 14 14 13 12 12 10 9 12 20 24 24 21 21 22 21 19 19 18 17 15 14 13 13 11 10 10 9 10 11 11 12 11 10 12 14 14 13 11 8 6 7 10 10 10 8 5 4 6 5 5 7 7 5 3 3 2 3 4 2 4
22 21 20 19 19 18 18 17 16 14 13 12 10 9 8 8 10 14 17 18 19 19 18 16 15 15 14 12 10 10 10 9 11 17 22 23 22 22 22 22 21 21 20 19 19 18 17 15 13 13 12 12 13 12 11 11 10 11 15 17 14 13 12 9 5 7 11 12 10 7 6 7 8 7 7 8 6 4 4 4 3 1 1 2 4
21 21 19 17 16 16 16 14 13 11 11 11 11 10 9 8 8 13 17 19 18 17 15 15 17 16 13 8 6 5 6 6 6 11 16 19 20 20 20 21 21 21 20 21 22 22 20 18 16 16 16 15 14 13 11 11 11 14 18 15 12 13 13 9 6 7 12 12 8 7 8 8 8 7 5 5 3 2 3 3 1 1 2 1 1
19 18 17 16 15 15 13 12 11 10 9 9 10 10 10 8 8 11 15 17 17 14 14 16 17 13 10 7 5 3 4 5 4 4 8 12 15 16 17 18 19 20 21 23 23 23 21 20 19 19 18 17 15 14 13 12 12 16 18 14 12 14 13 9 7 9 11 11 9 8 9 10 9 7 5 4 2 2 3 3 2 2 2 1 3
17 16 15 14 13 12 12 12 10 8 8 8 9 10 10 11 12 12 13 15 16 15 15 17 15 11 9 8 7 5 6 7 5 3 3 5 9 11 13 14 16 17 21 22 22 21 21 21 20 19 18 18 16 14 14 13 14 17 18 13 11 13 13 11 11 11 10 9 8 8 10 11 10 9 7 5 5 4 4 3 2 1 2 4 5
17 16 15 13 12 11 12 11 9 9 9 9 8 7 8 10 12 13 13 13 13 14 14 14 14 12 10 9 8 7 7 7 7 4 2 2 4 7 8 10 11 14 16 18 18 18 19 19 18 18 18 18 16 14 14 14 15 18 18 14 11 13 13 13 12 11 9 8 8 8 10 9 7 7 6 5 5 5 4 3 2 2 2 2 2
16 15 14 14 13 11 11 11 10 10 10 9 8 8 8 8 10 12 12 11 10 9 9 9 10 9 8 7 7 8 8 7 6 5 3 2 2 3 6 8 10 12 13 14 15 15 15 16 17 17 18 18 16 15 15 15 16 18 17 14 13 14 14 13 11 9 8 8 8 7 7 6 4 4 5 6 5 4 4 4 3 2 2 3 3
19 19 18 18 17 16 14 13 12 12 11 11 10 9 8 8 9 9 10 10 9 8 7 7 7 7 7 7 7 8 8 8 7 6 5 4 4 6 7 9 11 13 13 13 12 11 12 14 16 16 16 16 16 16 16 16 16 16 16 15 14 13 12 11 10 9 9 8 7 5 4 4 6 7 7 7 6 4 3 3 2 3 3 5 5
21 20 20 19 19 18 17 16 15 15 14 12 9 9 9 9 9 8 8 9 9 8 8 8 8 8 8 8 7 7 7 7 6 5 5 4 5 7 8 10 11 11 11 10 10 10 11 12 14 15 16 16 16 15 15 16 16 16 16 15 13 11 11 11 11 10 9 7 5 5 7 8 8 8 8 7 6 3 1 2 4 5 4 5 5
18 17 16 16 16 16 16 15 14 13 12 10 9 10 11 11 9 8 8 8 8 8 8 8 8 8 8 7 6 5 5 5 5 4 4 5 6 7 8 8 9 10 10 10 11 11 11 11 13 14 15 16 16 16 17 18 19 18 16 14 13 12 12 12 10 8 8 7 8 9 10 9 8 8 7 6 3 2 3 4 5 5 4 4 4
15 15 13 11 12 12 12 12 11 10 9 7 7 8 8 8 7 7 7 8 8 8 7 8 8 7 7 6 5 4 4 5 5 5 5 6 7 7 7 7 7 8 10 10 10 10 10 10 12 14 16 16 17 19 21 21 19 17 16 15 15 13 11 9 8 9 9 9 10 10 9 8 7 6 4 3 2 4 5 6 6 5 3 3 4
12 12 12 10 9 9 9 9 9 9 8 7 7 6 6 6 6 6 5 5 6 6 6 7 6 5 4 4 4 3 3 4 4 5 5 5 5 5 5 5 5 5 6 7 7 7 8 10 13 15 17 18 19 21 21 20 18 17 18 17 13 10 10 10 11 11 10 8 8 8 8 7 5 3 1 2 3 4 4 5 6 5 4 3 4
13 13 13 12 11 10 10 10 9 8 7 7 7 7 6 6 6 5 4 4 5 5 6 6 6 5 4 4 4 3 3 3 3 5 5 5 5 5 4 4 4 4 4 5 6 7 9 12 14 16 17 19 20 20 20 19 17 17 16 14 12 12 14 14 12 10 9 8 7 7 6 5 3 1 1 3 3 3 2 3 4 4 4 4 4
13 13 12 11 11 10 10 9 9 9 8 8 8 7 7 6 5 5 5 5 5 6 6 5 5 4 4 4 4 3 2 3 4 5 5 5 5 5 5 5 5 5 6 6 7 9 12 14 16 17 19 20 19 18 17 17 16 15 13 12 12 14 15 13 12 11 9 8 8 7 5 2 1 2 3 3 3 2 2 2 3 3 3 4 5
10 10 9 9 8 8 7 7 6 6 7 7 7 6 6 5 5 5 6 6 5 5 5 5 5 5 5 6 6 5 5 4 5 5 5 5 5 5 5 6 6 7 7 9 10 12 14 16 18 20 20 20 18 17 16 15 14 12 11 12 13 13 12 11 10 8 7 6 6 5 3 1 1 2 3 2 2 2 2 3 4 5 5 4 5
10 10 9 8 8 7 7 6 5 5 4 4 4 4 4 4 5 6 6 5 5 6 7 7 8 8 8 9 9 8 7 6 6 5 6 6 5 6 7 8 9 10 11 12 13 15 16 18 19 19 19 18 17 15 14 13 12 11 11 12 12 11 9 8 7 6 5 5 5 4 2 2 1 1 2 2 2 2 3 2 3 4 4 5 5
11 10 9 9 8 7 7 6 5 5 5 4 4 4 4 5 7 7 7 8 8 9 8 8 9 10 10 10 9 8 6 6 6 6 6 7 7 8 9 10 10 11 12 14 15 16 17 18 18 18 17 16 14 13 12 12 12 11 12 12 10 9 8 7 7 7 7 6 4 3 2 2 2 2 2 2 2 2 2 3 4 4 4 6 7
10 10 10 10 9 9 8 7 7 6 6 6 5 5 6 7 8 9 10 10 10 10 9 9 10 10 11 11 10 9 8 8 9 9 10 10 10 11 12 12 12 12 14 15 17 17 17 17 18 17 16 14 13 13 13 13 12 12 10 9 9 9 9 8 8 8 6 5 3 2 1 1 1 1 1 2 2 2 2 3 4 5 6 7 8
9 9 9 10 10 8 7 7 6 7 7 6 6 6 7 8 9 10 11 11 11 11 11 12 11 11 11 11 12 11 11 11 11 12 12 11 11 12 13 14 14 15 16 17 18 18 18 17 17 17 17 16 16 15 14 12 11 10 9 8 8 9 8 8 7 6 4 2 1 1 1 0 0 1 2 2 2 2 3 3 4 5 7 8 8
9 9 9 9 9 8 8 7 6 6 7 6 6 8 9 9 10 11 11 11 12 12 12 12 12 12 12 12 11 11 10 10 10 10 10 11 11 12 13 15 16 17 18 19 19 19 18 17 16 16 16 16 15 14 12 11 11 11 10 10 9 8 7 6 5 3 1 0 0 0 1 1 1 2 2 2 2 3 3 4 5 6 7 9 10
12 10 9 9 9 8 8 8 6 6 7 8 8 8 9 10 12 13 12 11 11 12 12 12 13 13 12 12 11 10 10 10 10 10 11 11 11 12 14 15 17 18 19 19 19 18 17 16 15 15 14 14 14 13 12 11 11 11 10 9 8 6 5 4 2 1 1 1 1 1 1 1 1 1 1 1 2 3 4 5 6 7 8 10 11
10 8 7 8 9 9 9 8 7 7 8 9 10 10 10 11 13 14 13 12 12 12 12 12 12 11 11 11 10 10 10 10 9 11 12 12 12 14 16 18 19 19 20 19 17 16 15 15 14 14 13 13 12 11 10 9 9 8 8 7 6 4 3 2 2 2 1 1 1 1 1 1 1 1 1 2 3 4 6 7 8 9 9 10 10
9 7 6 7 8 8 8 8 8 8 9 10 11 11 11 12 13 14 13 13 13 12 12 11 11 11 11 11 10 10 10 11 11 13 14 13 14 16 18 19 19 19 18 17 16 16 15 14 13 13 12 11 10 9 8 8 7 7 6 5 4 3 3 2 2 1 1 1 1 1 1 1 0 1 1 3 4 5 6 6 7 9 10 10 10
11 9 7 7 7 7 7 8 8 9 9 9 9 10 11 12 13 13 12 11 11 10 10 9 10 11 12 12 12 12 12 12 14 15 15 15 16 17 17 18 18 17 16 16 15 15 14 13 13 12 11 10 9 8 8 7 6 5 4 3 3 3 3 3 2 2 1 1 1 1 0 0 1 1 2 3 5 5 6 7 8 9 10 11 12
9 9 9 8 7 6 6 7 7 7 7 6 6 7 10 12 12 12 11 10 9 8 8 8 9 10 12 13 13 13 13 13 14 16 16 15 16 17 17 17 18 17 16 15 15 14 14 13 12 11 10 9 8 8 7 6 5 4 3 3 3 3 3 3 2 2 2 1 1 1 1 1 2 2 3 5 6 7 7 8 9 10 10 11 12
Wind_Direction
181 181 182 184 183 176 173 173 172 172 181 189 187 183 186 187 184 186 187 187 192 197 200 205 208 209 211 215 221 226 229 235 238 238 241 244 245 244 240 240 246 255 261 261 259 258 256 254 253 251 246 239 236 239 239 233 229 230 227 218 217 221 220 219 215 190 185 204 206 210 220 225 223 229 246 257 288 305 288 278 288 292 286 283 287
181 181 183 185 180 173 174 176 174 179 187 190 187 184 185 187 186 187 188 190 191 196 201 205 209 212 214 219 226 233 237 242 245 244 244 248 251 251 250 245 245 254 262 263 261 257 252 250 244 235 228 225 226 233 235 228 226 232 234 228 224 224 222 217 211 197 189 192 185 198 218 222 215 232 262 269 285 298 282 287 308 304 281 285 294
181 181 183 184 177 173 178 180 178 183 189 189 187 186 186 186 188 189 190 193 194 197 202 203 206 214 221 227 230 235 239 241 246 250 252 255 257 259 262 257 251 256 264 267 266 258 252 252 246 231 225 224 224 230 233 228 226 232 240 240 232 226 219 209 203 196 202 206 190 195 221 219 204 222 267 279 282 287 288 302 318 324 304 287 286
181 181 183 182 175 175 183 182 181 185 188 189 189 187 186 185 187 190 191 195 198 198 202 204 205 214 225 231 233 236 238 236 240 246 251 256 258 256 257 259 261 263 264 264 268 270 264 255 247 235 229 226 224 229 235 232 229 231 236 237 229 216 203 197 199 193 188 208 204 205 220 221 217 222 237 256 266 264 271 283 285 297 294 279 278
181 181 183 180 173 177 186 184 184 188 187 189 191 189 187 185 188 190 189 194 200 201 203 202 202 214 225 229 230 234 238 236 237 243 248 250 250 247 247 255 262 264 260 260 267 275 274 264 248 235 233 234 231 234 237 230 224 218 214 215 211 201 195 195 201 196 186 190 203 208 219 230 239 238 227 232 247 244 245 259 262 257 259 262 265
180 181 180 178 174 177 186 185 186 189 188 189 191 191 189 187 189 193 192 197 203 203 202 198 202 216 227 229 225 228 235 236 236 241 246 247 248 248 245 249 254 254 256 260 265 269 276 276 260 244 247 247 237 232 230 225 221 209 195 195 198 199 198 199 202 202 197 187 179 200 220 235 246 246 228 231 242 244 249 268 270 253 240 251 261
178 179 180 180 178 179 186 187 186 188 188 189 189 190 192 191 193 197 197 198 200 200 202 204 208 215 223 227 223 223 230 234 235 239 241 241 245 247 242 245 251 255 256 258 262 267 272 276 268 257 256 244 229 221 215 216 219 206 196 199 204 203 204 206 211 214 206 193 179 191 225 231 223 214 213 232 243 248 252 261 269 267 261 265 272
176 179 181 183 182 181 185 188 187 186 188 190 189 191 195 196 196 196 195 194 197 201 208 217 220 215 217 225 224 221 225 231 236 240 238 237 240 241 238 242 248 254 257 258 264 270 267 265 267 262 249 228 221 219 214 218 222 208 199 203 205 209 213 209 213 221 212 203 199 204 224 225 219 213 213 227 240 247 251 251 260 275 281 287 287
173 177 181 183 182 182 184 187 186 185 187 189 190 192 196 195 194 194 192 191 196 205 214 225 231 222 213 222 227 224 226 229 234 238 235 234 239 239 240 246 250 251 256 260 266 269 258 250 255 252 237 219 216 218 222 226 225 203 190 191 190 197 208 206 211 218 206 204 206 209 220 227 231 226 222 230 242 250 259 262 258 261 271 290 286
171 177 180 183 183 182 183 184 184 185 188 191 192 193 195 194 195 194 190 188 194 207 217 226 238 233 217 221 226 226 227 230 232 233 232 235 241 244 246 253 256 254 256 262 265 259 246 243 246 238 221 211 212 220 225 220 206 184 181 188 186 181 192 223 248 226 201 204 206 207 214 224 229 231 235 242 249 253 261 259 257 255 253 270 272
171 176 179 183 184 183 182 181 184 187 189 191 192 193 194 194 193 192 189 191 196 201 207 216 233 236 226 224 228 229 233 234 233 232 230 235 244 251 257 265 264 253 253 258 255 246 238 234 230 221 213 208 206 210 211 200 190 182 181 191 194 186 192 210 218 207 200 204 206 206 211 218 224 235 246 246 243 244 241 239 253 261 250 250 260
171 174 177 179 180 179 179 180 185 189 189 192 193 193 194 194 194 193 192 194 197 198 201 214 234 237 231 230 234 236 238 240 238 232 227 232 243 252 265 278 271 246 252 250 228 222 223 211 201 203 208 207 201 199 200 196 194 194 193 197 198 192 191 198 200 197 191 187 190 203 214 221 227 237 241 235 231 231 233 240 248 248 237 244 254
169 172 174 173 171 173 176 179 186 189 189 191 191 191 192 193 195 199 199 199 202 204 208 219 232 236 234 236 240 241 242 244 244 233 222 227 238 246 262 273 237 215 233 206 181 191 188 173 180 194 200 202 202 201 203 202 202 210 217 216 209 205 206 205 204 201 191 181 182 196 208 216 222 227 225 223 226 230 233 244 247 234 230 244 250
166 170 172 172 170 172 176 180 186 189 187 187 189 191 191 191 194 199 201 206 210 212 215 221 228 233 234 235 239 242 243 246 244 228 219 225 223 218 235 245 139 144 144 140 164 173 165 170 188 195 197 203 208 209 211 211 211 217 233 249 248 237 227 215 207 203 195 188 192 201 207 212 217 220 216 211 214 221 225 237 254 238 232 242 250
165 167 170 171 172 172 176 183 186 186 187 187 189 191 191 189 191 194 199 210 217 217 220 224 226 228 227 229 237 241 242 245 242 223 218 214 192 183 174 126 127 140 149 157 165 160 160 186 206 208 210 213 215 215 217 218 219 219 223 241 248 245 238 222 209 204 199 196 201 209 212 215 218 220 223 217 213 220 230 238 245 238 229 236 246
165 167 168 171 174 172 176 186 188 186 189 190 189 191 190 189 191 194 199 207 214 217 220 223 223 221 221 228 236 238 239 245 241 225 212 187 170 164 146 135 141 153 163 170 176 177 168 158 189 215 215 210 208 211 216 219 217 202 193 223 247 256 250 229 215 208 204 202 208 217 223 227 228 230 236 237 237 247 255 250 237 229 228 236 242
164 168 167 170 175 173 176 186 188 185 188 191 191 191 191 190 192 195 197 202 211 218 219 220 220 218 221 229 233 235 244 251 238 220 196 166 160 154 142 146 156 164 173 178 182 183 158 122 114 169 191 175 184 201 211 205 165 148 160 209 255 270 265 245 224 215 214 212 215 224 234 240 245 249 252 254 259 261 254 233 219 216 215 226 227
163 165 165 170 175 174 177 185 188 186 188 191 193 192 190 191 193 196 201 209 214 213 211 214 217 218 222 228 232 240 251 246 222 203 178 160 157 150 146 159 168 171 178 182 180 177 157 145 161 196 218 178 182 199 197 170 138 128 148 204 248 273 275 250 223 215 218 220 224 231 240 249 254 258 258 255 251 239 213 193 199 205 195 190 203
163 163 165 169 173 175 179 182 183 185 186 190 195 196 195 197 201 203 207 210 206 203 205 210 214 218 223 227 236 252 252 225 199 186 171 163 159 153 155 171 180 173 176 181 182 183 177 173 185 209 227 203 190 198 186 164 152 148 170 210 237 261 247 204 210 214 217 220 226 234 241 247 248 241 232 219 201 191 188 192 203 207 193 153 119
163 164 165 168 171 175 178 177 176 179 181 185 190 194 196 201 204 203 202 200 198 199 204 208 210 215 220 226 247 264 249 203 185 179 172 168 165 162 163 171 178 175 175 183 192 200 205 209 213 220 221 203 189 193 180 167 165 168 183 212 232 256 62 150 157 154 176 186 196 207 205 203 198 188 181 180 180 183 191 198 205 208 199 175 135
162 163 162 164 169 170 171 171 169 170 177 182 184 185 191 197 196 192 191 191 191 195 201 206 209 212 213 223 252 267 247 193 179 177 173 169 167 168 170 171 173 174 172 182 204 217 220 231 229 218 212 201 187 184 178 174 178 179 183 202 221 246 55 115 121 107 99 110 112 123 146 154 157 165 172 180 188 196 205 209 211 212 206 194 178
161 162 160 164 167 166 169 174 171 169 176 184 185 184 189 196 195 192 191 191 189 193 199 202 202 203 208 222 246 261 246 189 177 177 176 172 170 174 178 177 175 176 169 171 203 227 235 248 234 213 203 192 177 176 180 184 186 180 181 198 221 236 131 108 103 80 71 75 62 61 92 116 133 158 175 179 186 197 203 202 204 207 212 221 260
158 158 158 162 165 166 171 175 172 171 176 184 189 189 192 197 198 197 197 194 191 193 198 198 194 194 203 212 231 257 242 183 176 178 176 174 174 178 184 184 181 181 173 175 204 225 237 255 235 207 194 183 172 171 178 183 185 184 186 197 214 222 154 117 112 104 108 118 92 72 81 76 71 93 126 145 161 167 159 157 175 203 265 317 335
156 156 157 160 163 166 168 167 166 170 178 185 189 189 191 196 199 200 198 195 195 198 200 199 193 192 198 196 209 250 246 186 178 180 178 178 182 185 189 189 188 187 184 190 211 224 233 262 240 202 188 183 175 171 174 178 183 191 195 195 200 203 159 132 135 147 153 153 133 99 93 81 74 94 103 84 85 106 94 66 51 40 36 38 40
158 157 157 159 161 161 160 162 166 171 179 188 193 194 196 197 196 194 193 196 202 202 197 194 194 201 208 203 207 237 251 207 188 186 182 184 189 193 195 195 193 194 193 200 215 226 234 250 240 205 193 192 183 177 178 177 180 189 194 186 174 159 138 134 146 159 149 131 117 113 120 129 130 132 117 71 77 88 67 49 44 31 25 41 55
157 157 156 156 157 158 161 166 172 175 180 189 199 208 213 207 194 190 191 196 201 199 190 190 200 208 208 204 208 225 247 243 208 195 190 192 198 202 203 202 201 202 202 205 213 220 225 231 227 214 212 207 193 188 183 176 175 180 176 160 144 138 143 150 155 157 149 135 132 141 152 151 144 148 136 106 109 102 74 69 67 42 25 39 47
155 156 155 157 160 164 168 171 173 175 179 185 190 193 200 201 195 196 203 203 201 199 194 193 200 206 203 203 213 224 238 247 222 204 199 199 202 206 208 208 209 209 207 209 216 224 228 225 219 220 227 221 205 198 191 185 187 182 165 153 145 150 164 164 148 155 162 154 149 159 165 128 115 120 115 120 132 136 136 165 148 87 84 57 39
159 159 160 163 164 166 170 172 175 178 180 185 189 188 196 206 203 204 206 202 197 198 196 191 196 201 200 203 217 230 245 249 224 208 207 207 206 207 209 211 214 215 214 216 222 229 232 230 226 229 231 224 213 205 199 198 193 171 159 158 158 158 162 162 160 170 171 163 154 148 133 118 121 132 136 136 145 161 180 209 238 193 125 44 56
154 156 160 165 166 169 173 178 185 188 188 196 202 204 210 221 215 206 204 199 198 200 198 193 197 196 190 193 213 241 269 275 235 206 209 213 215 215 214 214 218 221 222 224 227 230 233 234 234 232 228 220 213 208 204 199 182 162 159 165 166 159 158 166 174 163 161 163 152 126 128 144 151 156 174 194 213 219 202 203 237 144 143 119 115
150 152 158 164 171 178 183 186 187 188 192 201 204 200 198 200 202 203 202 203 205 206 199 196 196 190 181 189 205 219 250 269 258 197 192 205 215 217 214 216 222 228 230 231 232 232 234 238 237 232 228 224 218 212 206 200 183 169 165 164 162 160 162 173 183 171 164 160 140 124 142 160 155 151 178 205 194 174 180 156 111 124 161 265 299
150 149 155 165 177 186 186 181 176 174 179 191 197 194 187 182 183 189 196 202 205 202 198 198 199 196 194 202 213 221 226 233 238 218 175 186 202 208 210 214 223 232 238 239 239 237 237 238 233 226 225 224 220 212 204 196 183 172 164 155 154 164 171 180 188 190 184 166 148 153 172 174 166 169 180 161 110 107 127 117 87 49 17 6 2
152 153 158 166 172 173 168 161 154 153 160 169 178 184 184 182 181 182 186 194 201 202 201 201 201 202 207 216 228 237 231 222 222 223 206 172 183 196 206 213 221 232 239 243 243 240 237 233 226 223 226 225 218 208 199 189 178 171 165 160 165 177 184 187 188 193 193 179 170 184 194 192 187 189 182 149 128 137 142 118 78 44 50 44 50
148 145 142 139 134 132 131 131 133 138 140 141 149 161 170 173 173 173 174 179 188 193 193 192 193 198 206 215 226 233 228 221 227 239 247 254 233 217 218 223 230 237 243 246 245 238 229 225 223 226 228 223 212 202 192 180 173 174 175 177 180 183 187 189 189 190 190 186 188 198 201 195 174 150 142 141 152 174 174 159 162 178 213 252 269
131 128 127 125 123 121 121 123 127 131 132 137 148 157 158 158 162 168 170 173 178 183 185 187 194 203 208 213 223 229 225 221 226 234 241 256 266 256 245 242 240 238 239 242 241 232 223 221 222 223 221 213 205 199 189 176 171 173 177 180 181 184 186 185 181 180 182 188 199 200 176 146 136 142 155 166 182 204 201 191 225 269 283 285 290
127 127 130 131 131 133 136 139 139 141 144 150 160 165 160 156 159 167 174 180 185 190 192 192 197 206 214 218 222 222 221 221 224 227 234 251 259 255 251 249 243 237 232 225 219 216 216 215 216 216 211 204 198 193 182 171 166 167 170 173 175 179 178 170 166 170 178 185 183 159 146 150 160 173 190 203 215 235 263 319 317 318 316 302 294
127 130 134 139 142 145 150 152 152 159 164 164 163 164 162 163 167 172 176 182 187 191 193 194 197 204 212 219 222 221 223 226 230 236 248 255 252 246 245 244 239 234 228 218 208 202 201 205 210 209 201 193 188 180 167 161 163 167 170 171 170 169 170 169 169 173 174 172 163 157 162 174 184 193 209 223 240 297 333 334 331 336 332 309 307
124 127 133 140 147 153 158 159 159 163 166 157 149 152 158 164 171 174 173 178 186 194 199 202 204 208 213 216 221 229 233 234 236 241 242 239 235 234 236 237 237 236 233 225 211 194 188 192 197 193 184 178 174 167 161 161 167 170 170 169 170 170 168 164 164 166 168 170 172 175 185 196 197 198 215 245 309 338 336 332 337 350 351 325 329
113 119 121 123 129 138 146 150 150 148 144 135 126 126 131 136 142 150 158 165 175 188 197 197 198 205 209 205 205 213 227 238 242 238 228 219 214 214 215 217 227 240 239 225 207 190 180 180 180 179 175 169 164 162 164 168 169 168 166 167 167 162 153 150 156 166 173 176 182 195 208 209 199 196 245 319 337 340 339 331 333 346 353 342 339
103 106 111 116 122 128 131 133 135 136 138 137 133 133 136 136 137 146 157 162 167 173 177 177 176 176 173 174 182 196 216 225 214 199 190 181 176 176 178 179 182 189 192 187 180 175 172 172 173 172 169 163 161 163 167 165 161 161 166 167 162 155 155 159 164 167 168 172 183 200 212 211 203 222 323 347 350 352 354 331 318 328 339 335 337
103 106 109 115 121 126 130 133 132 132 137 142 144 147 150 148 148 155 162 167 170 168 164 164 167 162 156 157 163 166 172 181 179 173 170 168 164 159 158 158 158 159 161 161 161 165 166 163 162 160 158 157 159 162 161 158 158 162 169 171 168 167 169 171 169 166 170 184 196 204 216 238 306 333 341 352 352 338 328 309 302 324 351 348 343
106 111 114 118 119 123 130 135 135 136 140 143 145 144 142 140 144 150 154 158 158 154 151 150 145 136 132 133 128 117 111 124 141 147 149 153 155 155 153 145 136 135 143 149 152 157 158 155 154 156 156 155 156 157 157 161 165 167 168 171 177 184 189 187 181 182 192 204 206 206 225 281 342 338 326 329 331 322 328 331 327 338 357 2 352
99 106 116 127 133 138 140 136 131 132 135 137 140 142 138 138 140 143 143 141 139 140 142 140 134 128 125 121 115 108 106 114 127 138 144 148 151 151 147 141 136 137 143 145 146 150 153 153 153 156 155 154 155 158 161 163 162 164 171 180 188 198 203 197 190 194 200 204 209 223 253 291 312 307 305 319 339 337 334 335 327 328 340 351 357
81 87 96 105 108 112 115 114 112 117 121 121 123 124 125 130 135 139 138 133 130 132 133 129 126 128 128 123 117 116 119 122 126 132 134 132 131 132 132 135 139 140 140 140 143 149 152 151 151 153 155 156 159 160 159 158 160 168 179 184 186 191 194 190 189 196 202 209 221 237 264 294 309 319 326 336 347 343 334 333 332 334 347 356 358
71 76 86 96 97 95 100 105 109 113 116 116 118 120 123 127 130 131 129 125 122 122 122 122 125 131 133 129 126 128 131 130 128 128 130 130 131 131 130 131 132 133 135 139 145 151 152 150 149 151 153 152 152 152 155 161 170 178 181 178 178 183 190 194 197 203 208 215 227 248 281 304 314 321 308 314 328 336 336 335 337 344 355 359 356
62 67 79 98 107 108 107 107 111 117 118 115 111 114 118 122 123 125 126 124 123 125 127 130 134 137 136 135 137 140 142 140 139 139 138 136 134 132 131 131 132 135 139 144 148 152 154 154 154 154 153 150 151 157 164 170 173 173 174 179 187 192 196 199 201 205 214 225 251 289 292 239 244 275 296 319 335 337 342 349 355 357 355 353 352
37 51 63 79 99 114 122 123 124 127 128 124 116 113 116 121 123 127 130 129 129 133 138 139 139 137 134 134 138 142 142 139 139 137 132 128 128 131 134 135 137 139 142 144 147 151 155 158 160 161 160 159 162 167 171 172 171 173 180 191 199 200 199 200 203 209 230 263 52 280 267 262 275 290 317 345 343 343 357 1 359 358 354 349 349
24 40 51 60 71 88 104 116 124 127 129 131 126 119 121 126 127 126 126 126 127 133 138 138 135 133 131 131 134 136 133 129 128 129 128 128 133 141 144 143 143 144 145 147 150 154 158 161 165 168 169 169 172 175 176 176 180 186 191 197 200 199 198 199 193 180 170 152 169 227 260 277 288 300 331 347 340 353 11 7 358 357 356 351 348
18 30 51 66 74 79 84 92 106 116 124 129 128 125 125 128 128 126 126 128 130 133 136 137 135 134 133 134 137 139 136 132 135 142 143 143 147 153 153 151 151 152 153 155 158 161 163 167 170 173 174 175 178 180 180 182 186 190 192 192 192 190 186 182 178 178 183 194 224 252 269 283 299 322 351 6 9 12 12 5 356 352 351 348 347
16 26 50 69 81 86 84 85 93 101 107 115 124 131 134 133 131 130 133 137 140 142 145 147 149 148 147 146 147 148 149 150 154 155 154 152 155 158 159 159 160 162 161 160 160 162 164 168 172 174 174 176 179 181 183 184 185 186 186 187 185 179 170 165 169 173 180 211 237 250 272 294 38 54 34 27 24 19 9 359 352 348 345 344 346
25 28 42 56 71 88 94 91 92 98 104 112 126 139 142 138 135 136 139 144 148 152 155 158 159 157 155 153 155 159 163 165 164 161 159 159 161 164 164 164 164 162 159 157 157 160 164 168 172 173 175 179 183 185 187 187 186 185 184 180 173 166 159 158 163 171 186 219 246 246 205 146 76 57 42 31 23 13 2 356 353 350 345 343 346
30 27 31 30 32 59 90 99 98 103 110 112 118 134 142 142 139 139 143 148 156 163 166 164 162 160 159 161 166 170 170 167 165 165 165 165 165 165 164 162 160 158 156 156 159 163 167 171 174 177 182 187 189 188 189 189 189 186 182 173 165 161 161 166 178 190 194 202 215 196 150 103 72 52 38 26 13 3 358 356 354 351 349 347 346
Height
1445 1448 1452 1456 1460 1464 1467 1468 1471 1473 1473 1474 1477 1480 1483 1486 1488 1489 1491 1492 1494 1496 1498 1500 1501 1503 1504 1505 1505 1506 1506 1506 1506 1507 1507 1507 1508 1508 1508 1509 1510 1511 1511 1510 1511 1513 1512 1511 1511 1512 1514 1516 1516 1516 1517 1518 1519 1520 1521 1522 1523 1523 1523 1524 1525 1525 1526 1527 1526 1526 1526 1527 1527 1528 1529 1530 1531 1532 1532 1532 1532 1533 1532 1532 1533
1442 1446 1451 1455 1459 1462 1463 1465 1469 1470 1469 1472 1476 1479 1482 1485 1486 1488 1489 1491 1492 1494 1496 1498 1500 1501 1503 1503 1504 1504 1504 1505 1505 1505 1506 1506 1507 1507 1507 1508 1509 1509 1509 1508 1508 1510 1509 1508 1510 1511 1512 1513 1515 1514 1514 1515 1516 1518 1518 1520 1521 1521 1522 1523 1524 1525 1526 1527 1527 1526 1526 1527 1527 1528 1528 1530 1531 1532 1532 1532 1532 1532 1532 1531 1532
1441 1445 1449 1453 1457 1459 1460 1463 1466 1467 1468 1471 1474 1477 1480 1482 1484 1486 1489 1490 1492 1493 1494 1496 1498 1500 1501 1502 1503 1503 1503 1504 1504 1504 1505 1505 1505 1506 1506 1507 1507 1507 1507 1506 1506 1508 1508 1507 1508 1509 1510 1511 1512 1512 1511 1513 1514 1515 1516 1518 1519 1519 1521 1522 1523 1524 1525 1526 1527 1526 1526 1527 1528 1528 1528 1529 1531 1532 1532 1531 1532 1532 1532 1532 1532
1440 1444 1448 1452 1455 1455 1457 1462 1464 1465 1467 1469 1472 1476 1478 1481 1483 1485 1488 1490 1491 1491 1492 1494 1497 1498 1499 1500 1501 1502 1502 1503 1503 1503 1504 1504 1504 1505 1505 1505 1505 1505 1505 1504 1504 1505 1507 1507 1506 1507 1508 1509 1510 1510 1510 1511 1513 1514 1515 1516 1517 1518 1519 1521 1522 1523 1523 1525 1527 1527 1526 1527 1528 1528 1529 1530 1531 1532 1532 1532 1532 1533 1533 1532 1531
1438 1442 1446 1450 1452 1453 1455 1460 1462 1464 1466 1468 1471 1475 1477 1479 1482 1484 1487 1489 1490 1490 1491 1493 1495 1496 1498 1499 1501 1501 1502 1502 1502 1502 1502 1503 1503 1503 1504 1503 1503 1503 1503 1503 1503 1503 1504 1505 1505 1505 1507 1507 1508 1508 1509 1510 1511 1512 1513 1515 1516 1517 1518 1519 1520 1521 1522 1523 1526 1527 1526 1527 1528 1528 1529 1530 1531 1532 1533 1533 1533 1534 1534 1532 1531
1437 1441 1444 1447 1448 1450 1454 1458 1460 1463 1465 1467 1470 1473 1475 1477 1480 1482 1484 1486 1488 1489 1490 1491 1493 1494 1496 1498 1500 1501 1501 1501 1501 1501 1501 1501 1501 1502 1502 1501 1501 1500 1501 1501 1501 1501 1502 1502 1503 1504 1505 1506 1507 1508 1508 1509 1509 1510 1511 1513 1515 1515 1516 1517 1518 1519 1520 1522 1523 1525 1525 1526 1527 1528 1529 1530 1531 1531 1531 1532 1532 1533 1533 1532 1531
1436 1439 1441 1444 1446 1449 1452 1455 1459 1461 1464 1466 1469 1471 1473 1475 1477 1480 1481 1483 1486 1488 1488 1489 1490 1493 1495 1497 1498 1500 1500 1500 1500 1499 1499 1499 1499 1500 1500 1499 1498 1498 1499 1499 1500 1501 1501 1501 1502 1503 1503 1504 1506 1507 1507 1507 1507 1508 1510 1512 1513 1515 1515 1516 1518 1519 1520 1521 1522 1523 1524 1524 1525 1526 1528 1529 1529 1529 1530 1531 1531 1531 1532 1532 1531
1433 1436 1438 1441 1444 1447 1450 1454 1457 1460 1462 1465 1467 1469 1471 1473 1476 1478 1480 1482 1484 1485 1486 1487 1489 1492 1494 1496 1497 1498 1499 1499 1498 1498 1498 1498 1498 1497 1497 1496 1496 1497 1497 1498 1499 1499 1500 1500 1501 1501 1502 1503 1505 1505 1505 1505 1506 1507 1509 1510 1512 1513 1515 1515 1517 1518 1519 1520 1522 1522 1522 1522 1523 1525 1527 1527 1528 1528 1529 1530 1530 1530 1530 1530 1530
1431 1434 1436 1439 1442 1446 1449 1452 1456 1459 1461 1464 1466 1468 1470 1473 1476 1479 1481 1482 1482 1483 1485 1487 1488 1491 1494 1495 1496 1497 1497 1497 1496 1496 1496 1496 1495 1495 1495 1494 1494 1495 1496 1496 1497 1497 1498 1499 1499 1500 1501 1503 1504 1505 1505 1505 1505 1506 1508 1509 1510 1511 1513 1514 1515 1516 1517 1518 1520 1520 1520 1521 1522 1523 1525 1525 1526 1527 1528 1529 1529 1530 1530 1530 1530
1429 1432 1435 1438 1441 1444 1448 1451 1454 1457 1460 1462 1464 1467 1471 1474 1476 1478 1480 1481 1482 1483 1485 1487 1489 1492 1494 1495 1496 1496 1495 1495 1494 1495 1495 1494 1493 1493 1493 1492 1492 1493 1494 1495 1496 1496 1496 1497 1498 1500 1501 1502 1504 1504 1504 1505 1505 1506 1507 1508 1509 1510 1511 1512 1513 1514 1516 1517 1518 1518 1519 1520 1521 1522 1523 1524 1524 1525 1526 1527 1527 1528 1529 1529 1529
1428 1431 1434 1437 1440 1443 1447 1451 1453 1456 1459 1461 1464 1467 1470 1473 1475 1477 1478 1480 1482 1483 1485 1486 1489 1492 1494 1495 1495 1494 1494 1493 1493 1493 1493 1492 1491 1491 1491 1491 1491 1491 1493 1494 1494 1495 1495 1496 1497 1498 1500 1501 1503 1503 1504 1504 1505 1505 1506 1507 1508 1509 1510 1511 1512 1513 1515 1516 1517 1518 1518 1519 1520 1521 1521 1522 1522 1523 1524 1525 1526 1526 1527 1528 1527
1428 1431 1433 1436 1440 1443 1447 1450 1452 1455 1458 1460 1463 1466 1468 1471 1473 1475 1477 1479 1481 1483 1483 1484 1489 1493 1495 1495 1494 1493 1493 1492 1492 1491 1491 1490 1489 1489 1489 1489 1489 1490 1491 1492 1493 1493 1494 1495 1496 1497 1499 1500 1502 1503 1503 1504 1505 1505 1506 1506 1507 1508 1509 1510 1511 1512 1513 1515 1516 1517 1518 1519 1519 1519 1520 1520 1521 1521 1522 1523 1524 1525 1526 1526 1525
1428 1431 1433 1437 1440 1443 1445 1448 1450 1453 1455 1458 1461 1463 1465 1468 1471 1474 1476 1478 1481 1482 1481 1483 1489 1494 1495 1494 1493 1491 1492 1491 1490 1489 1489 1488 1488 1488 1488 1488 1488 1489 1490 1491 1492 1492 1493 1495 1496 1497 1499 1500 1501 1502 1503 1504 1505 1505 1506 1506 1507 1508 1509 1509 1510 1511 1513 1514 1515 1515 1516 1516 1517 1517 1518 1519 1519 1519 1520 1522 1523 1524 1525 1524 1524
1427 1430 1434 1436 1439 1442 1444 1446 1449 1451 1454 1458 1460 1462 1464 1466 1469 1472 1475 1477 1480 1480 1479 1483 1490 1494 1495 1494 1491 1490 1490 1489 1488 1487 1487 1487 1487 1487 1487 1487 1488 1489 1490 1491 1492 1492 1493 1495 1496 1497 1498 1499 1501 1502 1503 1504 1505 1506 1506 1507 1507 1507 1508 1509 1510 1511 1512 1513 1513 1513 1513 1515 1515 1516 1517 1518 1518 1518 1519 1520 1521 1523 1524 1523 1523
1427 1430 1433 1436 1438 1440 1442 1445 1448 1450 1453 1456 1459 1461 1464 1466 1469 1471 1473 1476 1478 1478 1479 1484 1490 1493 1494 1492 1489 1489 1489 1487 1486 1486 1485 1485 1485 1485 1486 1487 1488 1490 1491 1492 1493 1493 1494 1495 1496 1498 1499 1499 1501 1502 1502 1503 1504 1505 1506 1506 1506 1507 1507 1509 1510 1511 1512 1512 1512 1512 1513 1514 1515 1515 1516 1516 1517 1517 1518 1519 1520 1521 1523 1523 1523
1427 1430 1433 1435 1437 1439 1441 1443 1446 1449 1452 1454 1457 1459 1462 1465 1468 1470 1472 1475 1477 1477 1480 1486 1490 1492 1491 1489 1488 1487 1487 1485 1485 1484 1484 1484 1484 1485 1486 1488 1489 1491 1492 1492 1493 1494 1495 1496 1497 1498 1498 1499 1501 1502 1502 1503 1503 1504 1505 1505 1505 1506 1507 1508 1509 1510 1511 1511 1511 1511 1512 1513 1514 1515 1515 1516 1517 1517 1517 1519 1520 1521 1522 1522 1523
1426 1429 1432 1434 1436 1438 1440 1442 1445 1448 1450 1453 1455 1458 1461 1463 1466 1468 1470 1472 1475 1478 1483 1487 1489 1490 1489 1487 1486 1486 1485 1483 1483 1483 1482 1483 1484 1485 1487 1488 1490 1491 1492 1493 1494 1494 1495 1496 1497 1498 1498 1499 1501 1501 1502 1502 1503 1504 1504 1504 1504 1506 1507 1507 1508 1509 1510 1510 1511 1511 1512 1512 1513 1514 1515 1515 1515 1515 1516 1517 1519 1520 1521 1521 1522
1426 1428 1431 1434 1436 1438 1440 1441 1444 1446 1449 1451 1454 1456 1459 1462 1465 1466 1468 1470 1474 1479 1484 1487 1487 1487 1487 1485 1484 1484 1482 1481 1481 1481 1481 1482 1483 1485 1487 1488 1490 1491 1492 1493 1493 1494 1495 1496 1497 1498 1499 1500 1500 1501 1501 1502 1503 1504 1505 1504 1504 1505 1506 1506 1507 1508 1509 1510 1510 1511 1511 1512 1513 1513 1514 1514 1514 1514 1515 1516 1517 1519 1520 1521 1521
1425 1428 1431 1433 1435 1437 1439 1441 1443 1446 1448 1452 1454 1456 1459 1461 1464 1466 1468 1471 1476 1480 1483 1484 1485 1484 1484 1483 1483 1482 1480 1479 1479 1480 1480 1482 1483 1484 1486 1488 1489 1491 1492 1493 1494 1495 1496 1496 1497 1499 1500 1500 1500 1501 1502 1502 1503 1504 1506 1505 1504 1505 1506 1506 1507 1507 1508 1509 1509 1510 1510 1511 1512 1512 1512 1513 1513 1514 1515 1516 1517 1519 1520 1520 1520
1425 1427 1430 1432 1434 1437 1439 1441 1444 1446 1448 1451 1454 1456 1458 1460 1463 1466 1469 1473 1477 1479 1480 1481 1482 1482 1481 1481 1480 1479 1478 1478 1478 1479 1480 1481 1483 1484 1485 1487 1489 1491 1492 1492 1493 1495 1496 1497 1497 1499 1500 1500 1500 1501 1502 1502 1503 1504 1506 1505 1504 1505 1506 1506 1506 1507 1508 1508 1509 1509 1510 1510 1511 1511 1512 1513 1513 1514 1516 1517 1518 1519 1520 1520 1520
1425 1427 1430 1432 1434 1437 1439 1442 1444 1447 1449 1450 1453 1455 1458 1460 1463 1467 1470 1473 1475 1476 1478 1478 1479 1479 1479 1478 1477 1477 1477 1477 1478 1479 1480 1481 1483 1483 1484 1486 1488 1490 1492 1493 1493 1494 1496 1497 1497 1498 1499 1499 1500 1501 1501 1502 1503 1504 1504 1504 1504 1505 1505 1506 1506 1507 1508 1508 1509 1509 1509 1510 1510 1511 1512 1513 1514 1515 1516 1517 1518 1519 1519 1519 1519
1425 1427 1430 1432 1435 1437 1439 1441 1444 1447 1449 1451 1453 1455 1457 1460 1463 1466 1468 1471 1472 1474 1475 1476 1476 1476 1476 1476 1475 1475 1475 1476 1477 1478 1480 1481 1482 1483 1484 1486 1488 1490 1492 1493 1493 1493 1495 1497 1498 1498 1499 1499 1499 1500 1501 1502 1503 1503 1504 1504 1504 1505 1505 1506 1506 1507 1508 1508 1509 1509 1509 1510 1511 1512 1513 1514 1514 1515 1516 1517 1518 1518 1519 1519 1520
1425 1428 1430 1433 1435 1437 1439 1441 1444 1446 1448 1450 1452 1454 1457 1459 1462 1464 1466 1468 1469 1471 1472 1473 1473 1474 1474 1474 1473 1473 1475 1476 1476 1478 1480 1481 1482 1483 1484 1486 1488 1489 1491 1493 1492 1493 1496 1497 1497 1498 1498 1499 1499 1500 1501 1502 1503 1504 1504 1504 1504 1505 1505 1506 1507 1509 1510 1510 1510 1510 1510 1511 1512 1513 1513 1514 1515 1516 1517 1517 1518 1519 1519 1520 1520
1425 1428 1430 1432 1434 1436 1439 1441 1443 1445 1447 1450 1451 1453 1456 1458 1460 1462 1464 1465 1467 1468 1469 1470 1471 1471 1472 1471 1471 1472 1474 1476 1476 1477 1479 1481 1482 1483 1484 1486 1487 1489 1491 1491 1491 1493 1496 1497 1497 1497 1498 1498 1499 1500 1501 1502 1503 1504 1504 1505 1505 1506 1506 1507 1508 1510 1511 1511 1511 1511 1511 1512 1513 1513 1514 1515 1516 1517 1517 1518 1519 1519 1519 1520 1520
1424 1427 1429 1431 1433 1436 1439 1441 1443 1445 1447 1449 1450 1452 1454 1456 1458 1460 1462 1463 1464 1465 1467 1468 1469 1469 1470 1470 1470 1471 1474 1475 1476 1477 1479 1481 1482 1483 1484 1486 1487 1489 1490 1491 1491 1493 1495 1496 1497 1497 1498 1498 1499 1500 1501 1502 1503 1504 1505 1505 1506 1507 1507 1508 1508 1509 1510 1511 1512 1512 1512 1512 1513 1514 1515 1516 1517 1517 1518 1518 1519 1519 1519 1520 1520
1423 1426 1429 1431 1434 1436 1437 1439 1441 1443 1445 1448 1449 1451 1454 1456 1457 1459 1460 1462 1463 1464 1466 1467 1467 1467 1468 1469 1470 1471 1473 1475 1476 1477 1478 1480 1481 1483 1484 1485 1487 1488 1489 1490 1491 1493 1494 1495 1496 1497 1497 1498 1499 1500 1500 1501 1502 1504 1505 1506 1506 1507 1508 1509 1509 1509 1510 1511 1512 1512 1513 1513 1514 1515 1516 1516 1517 1517 1518 1518 1518 1519 1519 1520 1520
1424 1426 1429 1431 1433 1435 1436 1439 1441 1443 1445 1447 1449 1451 1453 1455 1457 1458 1459 1461 1462 1463 1464 1465 1465 1465 1466 1468 1470 1471 1472 1473 1474 1476 1477 1479 1480 1482 1483 1485 1486 1488 1489 1490 1491 1492 1493 1494 1495 1496 1497 1497 1498 1499 1499 1499 1500 1502 1504 1506 1506 1507 1508 1510 1510 1510 1510 1511 1511 1512 1513 1514 1515 1516 1516 1516 1517 1517 1518 1518 1518 1519 1519 1520 1520
1425 1427 1429 1431 1434 1436 1438 1440 1442 1444 1445 1448 1449 1451 1453 1454 1456 1457 1458 1459 1461 1461 1462 1464 1465 1465 1466 1468 1470 1471 1471 1472 1472 1474 1476 1478 1479 1480 1482 1484 1485 1486 1488 1489 1490 1491 1492 1492 1494 1495 1495 1496 1497 1498 1499 1499 1500 1501 1502 1505 1506 1507 1508 1510 1510 1510 1510 1510 1511 1512 1513 1514 1515 1516 1516 1516 1517 1517 1517 1517 1518 1519 1519 1519 1519
1426 1428 1430 1433 1435 1438 1440 1441 1443 1445 1446 1448 1450 1451 1452 1453 1455 1456 1457 1459 1460 1461 1462 1463 1464 1465 1467 1468 1470 1470 1471 1471 1472 1473 1475 1477 1478 1480 1481 1483 1484 1485 1487 1488 1488 1489 1490 1490 1492 1492 1493 1494 1495 1497 1498 1499 1500 1501 1503 1504 1505 1506 1508 1509 1510 1510 1511 1510 1511 1512 1513 1514 1515 1516 1516 1516 1516 1516 1517 1517 1518 1518 1518 1518 1518
1427 1430 1432 1434 1436 1439 1440 1442 1443 1445 1447 1448 1449 1451 1452 1453 1455 1456 1457 1459 1460 1461 1462 1464 1464 1466 1467 1468 1469 1469 1470 1471 1472 1473 1474 1476 1478 1479 1481 1482 1483 1485 1486 1486 1486 1487 1488 1488 1489 1490 1491 1493 1494 1495 1497 1498 1499 1500 1502 1503 1504 1505 1507 1508 1509 1510 1510 1510 1511 1512 1513 1514 1515 1514 1514 1515 1516 1517 1517 1518 1518 1518 1517 1517 1518
1429 1431 1433 1435 1437 1439 1441 1442 1444 1445 1447 1448 1450 1451 1452 1453 1455 1456 1457 1458 1459 1461 1462 1463 1465 1466 1467 1468 1468 1468 1470 1471 1473 1473 1474 1475 1476 1478 1479 1480 1482 1483 1484 1485 1485 1486 1486 1487 1488 1489 1491 1492 1493 1494 1496 1497 1498 1500 1501 1503 1504 1505 1507 1507 1507 1508 1509 1510 1512 1513 1513 1514 1514 1514 1514 1515 1516 1517 1517 1517 1517 1517 1517 1517 1517
1430 1432 1434 1437 1438 1440 1441 1443 1445 1446 1448 1449 1450 1451 1452 1454 1455 1456 1457 1458 1459 1460 1462 1463 1465 1466 1467 1468 1468 1469 1470 1472 1473 1474 1474 1475 1476 1477 1477 1478 1479 1481 1482 1483 1483 1484 1485 1486 1487 1488 1490 1491 1493 1494 1496 1497 1499 1500 1501 1502 1503 1505 1506 1506 1506 1507 1509 1511 1513 1514 1514 1514 1514 1515 1515 1515 1516 1516 1517 1517 1517 1517 1517 1517 1516
1432 1434 1436 1438 1440 1442 1443 1445 1446 1448 1449 1450 1451 1452 1453 1454 1456 1457 1458 1459 1460 1461 1462 1464 1465 1466 1467 1468 1469 1470 1471 1472 1473 1474 1474 1475 1475 1476 1476 1477 1478 1479 1480 1481 1481 1482 1484 1485 1486 1487 1489 1490 1492 1494 1495 1497 1498 1500 1501 1502 1503 1504 1505 1506 1507 1508 1510 1512 1513 1513 1514 1514 1515 1515 1515 1515 1515 1515 1515 1516 1516 1516 1515 1515 1515
1434 1436 1438 1439 1441 1443 1445 1446 1448 1449 1450 1451 1452 1453 1454 1456 1457 1458 1459 1460 1461 1462 1463 1464 1465 1467 1468 1469 1470 1471 1472 1472 1473 1474 1474 1474 1474 1475 1475 1476 1477 1477 1478 1479 1480 1481 1482 1483 1485 1486 1488 1490 1492 1493 1495 1497 1498 1499 1500 1502 1503 1504 1506 1507 1508 1509 1511 1512 1513 1513 1514 1515 1515 1514 1514 1514 1514 1514 1515 1515 1515 1515 1515 1515 1515
1436 1437 1439 1441 1442 1444 1446 1447 1449 1450 1451 1452 1453 1454 1456 1456 1457 1458 1459 1460 1461 1462 1463 1464 1465 1467 1468 1469 1470 1471 1472 1472 1473 1473 1473 1473 1474 1474 1475 1475 1476 1476 1477 1478 1479 1480 1481 1482 1484 1485 1487 1489 1491 1493 1495 1496 1498 1499 1500 1501 1503 1504 1506 1507 1509 1510 1511 1512 1513 1513 1514 1514 1514 1514 1513 1513 1514 1514 1514 1514 1514 1514 1514 1514 1514
1438 1440 1441 1443 1444 1446 1447 1449 1450 1451 1452 1453 1454 1455 1456 1457 1458 1459 1460 1461 1462 1462 1464 1465 1466 1467 1468 1469 1470 1470 1471 1472 1472 1473 1473 1473 1473 1474 1474 1474 1475 1476 1476 1477 1478 1479 1480 1482 1484 1485 1487 1489 1491 1493 1495 1496 1498 1499 1500 1501 1502 1504 1506 1508 1509 1510 1512 1512 1512 1513 1514 1514 1514 1513 1513 1513 1513 1514 1514 1513 1513 1513 1513 1513 1513
1440 1441 1443 1444 1446 1447 1449 1450 1451 1452 1453 1454 1455 1456 1457 1457 1458 1459 1460 1461 1462 1463 1464 1465 1466 1467 1468 1469 1469 1470 1471 1471 1472 1472 1472 1472 1473 1473 1474 1474 1475 1475 1476 1477 1478 1479 1480 1482 1484 1485 1487 1489 1491 1492 1494 1496 1498 1499 1500 1502 1503 1505 1506 1508 1510 1511 1511 1511 1512 1513 1513 1514 1513 1513 1513 1513 1513 1513 1513 1512 1513 1513 1513 1512 1512
1442 1442 1444 1446 1447 1448 1449 1450 1451 1452 1453 1454 1455 1456 1457 1458 1459 1459 1460 1461 1462 1463 1464 1465 1466 1467 1467 1468 1469 1469 1470 1471 1471 1472 1472 1472 1473 1473 1474 1474 1475 1476 1477 1477 1478 1479 1481 1482 1484 1486 1487 1489 1491 1493 1495 1496 1498 1499 1501 1503 1504 1506 1507 1509 1510 1510 1511 1511 1512 1513 1513 1513 1513 1513 1513 1513 1513 1512 1512 1512 1512 1512 1512 1512 1511
1444 1444 1446 1447 1448 1450 1451 1451 1452 1453 1454 1455 1456 1457 1457 1458 1459 1460 1461 1462 1463 1464 1464 1465 1466 1467 1467 1468 1468 1469 1470 1470 1471 1471 1472 1472 1473 1473 1474 1474 1475 1476 1477 1478 1479 1480 1481 1482 1484 1486 1488 1490 1492 1494 1495 1497 1498 1500 1502 1503 1505 1506 1507 1509 1509 1510 1511 1511 1512 1512 1512 1513 1513 1512 1512 1512 1512 1512 1512 1512 1511 1511 1511 1511 1511
1446 1447 1448 1449 1450 1451 1452 1452 1453 1454 1454 1455 1456 1456 1457 1458 1459 1460 1461 1462 1463 1464 1465 1466 1466 1467 1467 1468 1469 1469 1470 1471 1471 1472 1472 1472 1473 1474 1474 1475 1475 1476 1477 1478 1479 1480 1482 1483 1485 1487 1489 1491 1493 1495 1496 1497 1499 1501 1502 1504 1505 1506 1507 1508 1509 1510 1510 1511 1512 1512 1512 1512 1512 1512 1512 1512 1512 1512 1512 1511 1511 1511 1511 1511 1510
1447 1448 1449 1450 1451 1451 1452 1452 1453 1454 1454 1455 1456 1457 1457 1458 1459 1460 1461 1462 1463 1464 1465 1466 1467 1467 1468 1469 1469 1470 1471 1471 1472 1472 1473 1473 1474 1474 1475 1475 1476 1477 1478 1479 1479 1481 1483 1485 1487 1489 1491 1493 1494 1495 1497 1498 1500 1501 1503 1504 1505 1506 1507 1508 1509 1510 1510 1511 1512 1512 1512 1512 1511 1511 1511 1511 1511 1511 1511 1511 1511 1510 1510 1510 1510
1447 1448 1449 1450 1451 1451 1452 1453 1454 1454 1455 1456 1456 1457 1458 1459 1460 1461 1462 1463 1464 1465 1466 1466 1467 1468 1469 1469 1470 1471 1471 1472 1472 1473 1473 1474 1474 1475 1475 1476 1477 1478 1479 1480 1481 1483 1485 1486 1488 1490 1492 1493 1495 1496 1498 1499 1500 1502 1503 1504 1505 1506 1507 1508 1509 1510 1510 1511 1511 1511 1511 1511 1511 1511 1511 1511 1511 1511 1511 1511 1510 1510 1510 1510 1509
1448 1449 1449 1450 1451 1452 1453 1454 1455 1455 1456 1456 1457 1458 1459 1459 1460 1462 1462 1463 1464 1465 1466 1467 1468 1468 1469 1470 1470 1471 1472 1472 1473 1473 1474 1475 1475 1476 1476 1477 1478 1479 1480 1482 1483 1485 1487 1488 1490 1492 1493 1495 1496 1498 1499 1500 1501 1502 1503 1504 1505 1507 1507 1508 1509 1510 1510 1511 1511 1511 1510 1510 1510 1510 1511 1511 1511 1511 1511 1510 1510 1510 1509 1509 1508
1450 1450 1450 1451 1452 1453 1454 1455 1455 1456 1457 1457 1458 1459 1460 1460 1461 1462 1463 1464 1465 1466 1467 1468 1468 1469 1470 1471 1471 1472 1473 1473 1474 1475 1475 1476 1476 1477 1478 1479 1480 1481 1482 1484 1485 1487 1489 1490 1492 1493 1495 1496 1498 1499 1499 1500 1501 1502 1503 1505 1506 1507 1508 1508 1509 1509 1510 1510 1510 1510 1510 1510 1510 1510 1510 1510 1510 1511 1510 1510 1510 1509 1509 1508 1507
1452 1451 1452 1452 1453 1454 1455 1456 1456 1457 1458 1458 1459 1460 1460 1461 1462 1463 1464 1465 1466 1467 1468 1468 1469 1470 1471 1471 1472 1473 1473 1474 1475 1475 1476 1477 1478 1479 1479 1480 1482 1483 1484 1485 1487 1489 1491 1492 1493 1494 1495 1497 1498 1499 1499 1501 1502 1503 1504 1505 1506 1507 1508 1508 1509 1509 1509 1509 1509 1509 1510 1510 1510 1510 1510 1510 1510 1510 1510 1510 1509 1509 1508 1507 1507
1453 1453 1453 1453 1454 1455 1456 1457 1457 1458 1458 1459 1460 1460 1461 1462 1463 1464 1465 1466 1467 1468 1468 1469 1470 1471 1471 1472 1473 1474 1474 1475 1476 1477 1478 1479 1479 1480 1481 1482 1483 1484 1486 1487 1489 1490 1492 1493 1494 1495 1496 1497 1498 1499 1500 1501 1502 1504 1505 1506 1507 1507 1508 1508 1508 1509 1509 1509 1509 1509 1509 1509 1510 1510 1510 1510 1510 1510 1509 1509 1508 1508 1507 1507 1506
1455 1455 1455 1455 1455 1456 1457 1458 1458 1459 1460 1460 1461 1462 1463 1464 1464 1465 1466 1467 1468 1469 1470 1470 1471 1472 1472 1473 1474 1475 1476 1477 1478 1478 1479 1480 1481 1482 1483 1484 1485 1486 1487 1489 1490 1491 1493 1494 1495 1496 1497 1498 1499 1500 1501 1502 1503 1504 1505 1506 1507 1508 1508 1508 1508 1508 1508 1508 1509 1509 1509 1509 1510 1510 1510 1510 1509 1509 1509 1509 1508 1507 1507 1506 1505
1457 1457 1457 1457 1458 1458 1458 1459 1460 1460 1461 1461 1462 1463 1464 1465 1466 1467 1468 1469 1470 1470 1471 1472 1472 1473 1474 1474 1475 1476 1477 1478 1478 1479 1480 1481 1482 1483 1484 1485 1486 1487 1488 1490 1491 1492 1494 1495 1496 1497 1498 1499 1500 1501 1502 1503 1504 1505 1506 1507 1507 1507 1508 1508 1508 1508 1508 1508 1509 1509 1509 1509 1509 1509 1509 1509 1509 1509 1508 1508 1507 1507 1506 1505 1505
1459 1459 1459 1459 1459 1460 1460 1461 1461 1462 1462 1463 1464 1465 1466 1467 1467 1468 1469 1470 1471 1472 1472 1473 1473 1474 1475 1475 1476 1477 1477 1478 1479 1480 1481 1482 1483 1484 1485 1486 1487 1488 1489 1491 1492 1493 1494 1496 1497 1498 1499 1500 1502 1503 1504 1504 1505 1506 1506 1507 1507 1507 1507 1508 1508 1508 1508 1509 1509 1509 1509 1509 1509 1509 1509 1509 1509 1508 1508 1508 1507 1506 1505 1505 1504
1462 1461 1461 1461 1461 1461 1461 1462 1463 1463 1464 1465 1465 1466 1467 1468 1469 1470 1470 1471 1472 1472 1473 1473 1474 1474 1475 1476 1477 1477 1478 1478 1479 1481 1482 1483 1484 1485 1486 1487 1488 1490 1491 1492 1493 1494 1496 1497 1498 1499 1501 1502 1502 1503 1504 1504 1505 1506 1506 1506 1507 1507 1507 1507 1508 1508 1508 1509 1509 1509 1509 1509 1509 1509 1509 1508 1508 1508 1508 1507 1506 1506 1505 1504 1503
1465 1464 1463 1462 1462 1462 1462 1463 1464 1465 1465 1466 1466 1467 1467 1468 1469 1470 1471 1472 1472 1472 1473 1474 1474 1475 1475 1476 1477 1477 1478 1479 1480 1481 1483 1483 1484 1486 1487 1488 1489 1491 1492 1493 1494 1496 1497 1498 1499 1500 1502 1502 1503 1504 1504 1505 1505 1505 1506 1506 1506 1507 1507 1507 1508 1508 1508 1509 1509 1509 1509 1509 1509 1509 1508 1508 1508 1508 1507 1506 1506 1505 1504 1503 1502